GEFSSGP_con_prob3kmehi_006.txt.gz
EHI
0 0 0 0 0 0 0 0 0 0 0 0 0 0 0 0 0 0 0 0 3 6 3 7 14 8 1 1 0 0 0 0 0 0 0 0 0 0 0 0 0 0 0 0 0 0 0 0 0
0 0 0 0 0 0 0 0 0 0 0 0 0 0 0 0 0 0 0 0 7 13 7 7 12 10 9 13 8 2 0 0 0 0 0 0 0 0 0 0 0 0 0 0 0 0 0 0 0
0 0 0 0 0 0 0 0 0 0 0 0 0 0 0 0 0 0 0 1 10 19 18 21 25 21 30 42 30 9 1 0 0 0 0 0 0 0 0 0 0 0 0 0 0 0 0 0 0
0 0 0 0 0 0 0 0 0 0 0 0 0 0 0 0 0 0 1 3 12 26 37 49 51 46 57 70 53 20 3 0 0 0 0 0 0 0 0 0 0 0 0 0 0 0 0 0 0
0 0 0 0 0 0 0 0 0 0 0 0 0 0 0 0 0 0 1 3 14 36 57 72 77 74 79 85 66 32 7 0 0 0 0 0 0 0 0 0 0 0 0 0 0 0 0 0 0
0 0 0 0 0 0 0 0 0 0 0 0 0 0 0 0 0 0 1 1 11 38 66 84 89 89 91 92 80 54 31 17 8 2 0 0 0 0 0 0 0 0 0 0 0 0 0 0 0
0 0 0 0 0 0 0 0 0 0 2 3 3 1 0 0 2 4 7 7 9 26 60 83 87 87 92 95 92 83 70 56 37 19 7 1 0 0 0 0 0 0 0 0 0 0 0 0 0
0 0 0 0 0 0 0 0 0 4 12 17 11 3 0 4 15 28 37 34 19 16 41 68 71 71 80 88 92 93 89 80 63 37 14 3 0 0 0 0 0 0 0 0 0 0 0 1 1
0 0 0 0 0 0 0 0 0 11 32 41 26 8 1 10 36 65 77 68 40 15 20 39 44 46 57 66 70 71 68 60 47 27 10 2 0 0 0 0 0 0 0 0 0 0 0 1 2
0 0 0 0 0 0 0 0 0 12 37 48 32 10 3 13 44 80 95 88 59 22 8 14 18 20 28 36 37 36 30 22 14 7 2 0 0 0 0 0 0 0 0 0 0 0 0 1 1
0 0 0 0 0 0 0 0 0 6 17 24 18 7 3 9 31 63 85 91 74 38 10 3 3 4 7 11 14 14 11 8 7 4 2 0 0 0 0 0 0 0 1 1 1 1 0 0 0
0 0 0 0 0 0 0 0 0 1 4 8 9 6 3 4 13 35 61 81 82 58 27 10 5 1 0 1 4 8 10 11 11 8 3 0 0 0 0 0 0 0 1 2 2 1 0 0 0
0 0 0 0 0 0 0 0 1 5 18 31 33 23 14 8 9 21 46 76 87 69 42 28 22 10 1 0 1 2 6 9 10 7 4 1 1 2 2 1 0 0 1 3 3 2 1 1 0
0 0 0 0 0 0 0 0 5 22 50 70 71 57 44 37 36 44 64 85 91 75 52 43 40 21 4 1 5 9 11 9 7 5 3 4 7 12 15 13 6 2 3 5 7 6 5 4 3
0 0 0 0 0 0 0 0 12 44 79 94 94 87 79 77 78 82 90 96 96 85 69 59 52 34 12 8 17 26 25 15 6 3 2 5 12 26 41 38 19 8 9 15 16 13 10 9 7
0 0 0 0 0 0 0 1 15 51 84 97 99 99 98 98 99 98 98 99 99 95 88 80 72 54 29 17 21 26 22 12 4 1 1 2 8 26 51 55 34 21 26 33 29 18 11 8 6
0 0 0 0 0 0 0 1 10 36 70 92 99 100 100 99 96 91 89 94 98 99 97 92 82 65 42 21 12 11 9 4 1 0 0 0 2 14 36 50 47 45 51 51 38 19 7 3 2
0 0 0 0 0 0 0 1 4 18 49 82 98 100 100 98 89 75 71 80 89 91 87 79 63 47 31 15 4 1 1 0 0 0 0 0 0 4 17 36 53 68 72 65 47 23 5 0 0
0 0 0 0 0 0 0 0 1 8 35 75 97 100 100 96 79 55 46 54 63 61 55 44 30 18 11 5 1 0 0 0 0 0 0 0 0 2 9 25 47 68 77 73 57 30 8 0 0
0 0 0 0 0 0 0 0 0 4 28 68 94 99 97 86 61 34 23 26 28 24 18 12 7 3 1 0 0 0 0 0 0 0 0 0 0 3 8 17 31 46 57 59 49 28 8 0 0
0 0 0 0 0 0 0 0 0 5 28 64 85 86 77 56 31 15 9 8 7 4 2 0 0 1 1 1 1 0 0 0 0 0 0 0 0 3 8 11 14 20 25 28 25 15 5 0 0
0 0 0 0 0 0 0 0 0 5 24 47 58 52 38 21 8 3 3 2 1 1 0 0 0 1 3 3 2 0 0 0 0 0 0 0 0 1 4 5 4 4 5 6 6 5 2 0 0
0 0 0 0 0 0 0 0 0 3 11 18 20 16 9 3 0 0 0 0 0 0 0 0 0 1 3 3 1 0 0 0 0 0 0 0 0 0 0 1 0 0 0 0 0 1 1 0 0
0 0 0 0 0 0 0 0 0 0 1 1 1 1 0 0 0 0 0 0 0 0 0 0 0 1 2 3 1 0 0 0 0 0 0 0 0 0 0 0 0 0 0 0 0 0 0 0 0
0 0 0 0 0 0 0 0 0 0 0 0 0 0 0 0 0 0 0 0 0 0 0 0 0 1 3 5 3 0 0 0 0 0 0 0 0 0 0 0 0 0 0 0 0 0 0 0 0
0 0 0 0 0 0 0 0 0 0 0 0 0 0 0 0 0 0 0 0 0 0 0 0 0 1 3 4 2 0 0 0 0 0 0 0 0 0 0 0 0 0 0 0 0 0 0 0 0
0 0 0 0 0 0 0 0 0 0 0 0 0 0 0 0 0 0 0 0 0 0 0 0 0 0 1 1 1 0 0 0 0 0 0 0 0 0 0 0 0 0 0 0 0 0 0 0 0
0 0 0 0 0 0 0 0 0 0 0 0 0 0 0 0 0 0 0 0 0 0 0 0 0 0 0 0 0 0 0 0 0 0 0 0 0 0 0 0 0 0 0 0 0 0 0 0 0
0 0 0 0 0 0 0 0 0 0 0 0 0 0 0 0 0 0 0 0 0 0 0 0 0 0 0 0 0 0 0 0 0 0 0 0 0 0 0 0 0 0 0 0 0 0 0 0 0
0 0 0 0 0 0 0 0 0 0 0 0 0 0 0 0 0 0 0 0 0 0 0 0 0 0 0 0 0 0 0 0 0 0 0 0 0 0 0 0 0 0 0 0 0 0 0 0 0

GEFSSGP_con_prob3kmehi_012.txt.gz
EHI
0 0 0 0 0 0 0 0 0 0 0 0 0 0 0 0 0 0 0 0 0 0 0 0 0 0 0 0 0 0 0 0 0 0 0 0 0 0 0 0 0 0 0 0 0 0 0 0 0
0 0 0 0 0 0 0 0 0 0 0 0 0 0 0 0 0 0 0 0 0 0 0 0 0 0 0 0 1 2 2 1 1 0 0 0 0 0 0 0 0 0 0 0 0 0 0 0 0
0 0 0 0 0 0 0 0 0 0 0 0 0 0 0 0 0 0 0 0 0 0 0 0 0 0 0 0 1 4 4 3 2 1 0 0 0 0 0 0 0 0 0 0 0 0 0 0 0
0 0 0 0 0 0 0 0 0 0 0 0 0 0 0 0 0 0 0 0 0 0 0 0 1 0 0 0 1 3 3 2 1 0 0 0 0 0 0 0 0 0 0 0 0 0 0 0 0
0 0 0 0 0 0 0 0 0 0 0 0 0 0 0 0 0 0 0 0 0 1 0 2 4 2 0 0 0 1 1 0 0 0 0 0 0 0 0 0 0 0 0 0 0 0 0 0 0
0 0 0 0 0 0 0 0 0 0 0 0 0 0 0 0 0 0 0 0 1 3 2 3 6 3 0 0 0 0 0 0 0 0 0 0 0 0 0 0 0 0 0 0 0 0 0 0 0
0 0 0 0 0 0 0 0 0 0 0 0 0 0 0 0 0 0 0 0 1 4 3 3 4 2 0 0 0 0 0 0 0 0 0 0 0 0 0 0 0 0 0 0 0 0 0 0 0
0 0 0 0 0 0 0 0 0 0 0 0 0 0 0 0 0 0 0 0 1 3 5 6 5 2 1 0 0 1 1 0 0 0 0 0 0 0 0 0 0 0 0 0 0 0 0 0 0
0 0 0 0 0 0 0 0 0 0 0 0 0 0 0 0 0 0 0 0 0 1 5 11 13 12 11 8 6 6 5 3 2 1 0 0 0 0 0 0 0 0 0 0 0 0 0 0 0
0 0 0 0 0 0 0 0 0 0 0 0 0 0 0 0 0 0 0 0 0 0 3 9 19 28 36 35 28 22 19 15 10 6 2 0 0 0 0 0 0 0 0 0 0 0 0 0 0
0 0 0 0 0 0 0 0 0 0 0 0 1 1 1 0 0 0 0 0 0 0 0 4 12 30 50 56 47 37 36 32 24 15 7 2 1 0 0 0 0 0 0 0 0 0 0 0 0
0 0 0 0 0 0 0 0 0 0 0 2 7 9 4 0 0 0 0 0 0 0 0 0 3 15 32 40 33 29 32 33 28 20 14 11 9 4 1 1 0 0 0 0 0 0 0 0 0
0 0 0 0 0 0 0 0 0 0 1 6 16 17 8 1 0 0 0 0 0 0 0 0 0 2 8 10 8 8 13 18 19 15 16 26 30 21 10 4 1 1 0 0 1 1 0 0 0
0 0 0 0 0 0 0 0 1 4 10 18 23 20 11 2 0 1 4 7 6 3 1 0 0 0 0 0 0 0 3 8 9 7 11 25 37 33 18 6 1 1 1 1 2 1 0 0 0
0 0 0 0 0 0 0 1 7 20 36 43 40 32 22 13 10 11 17 27 29 23 15 10 8 5 1 0 0 0 1 3 3 2 4 10 18 18 11 4 1 2 3 3 2 1 1 0 0
0 0 0 0 0 0 0 6 24 49 68 72 64 54 47 41 37 34 41 55 62 60 50 42 36 23 9 2 0 0 0 0 0 0 0 0 1 2 2 2 1 3 5 4 2 2 3 2 0
0 0 0 0 0 0 0 11 40 70 84 85 79 74 70 67 61 57 60 69 76 77 75 72 63 42 17 4 1 0 0 0 0 0 0 0 1 1 2 1 1 2 4 3 2 5 6 3 1
0 0 0 0 0 0 1 13 37 61 74 78 81 83 81 74 62 55 55 55 55 57 60 63 55 34 14 4 1 0 0 0 0 0 0 0 1 2 1 1 1 1 2 3 4 6 6 3 2
0 0 0 0 0 0 2 8 19 31 43 59 77 87 82 68 49 35 29 25 23 24 26 29 25 13 4 1 0 0 0 0 0 0 0 0 1 1 0 0 1 2 2 4 5 6 5 3 1
0 0 0 0 0 0 1 2 4 7 15 40 71 85 76 56 32 16 9 6 5 5 6 7 5 2 0 0 0 0 0 0 0 0 0 0 0 0 0 0 1 1 1 3 5 6 5 3 2
0 0 0 0 0 0 0 0 0 1 6 30 60 70 56 32 13 4 1 0 1 1 1 1 0 0 0 0 1 1 0 0 0 0 0 0 0 0 0 0 0 0 0 1 4 6 6 5 4
0 0 0 0 0 0 0 0 0 1 6 20 38 41 27 11 2 0 0 0 0 0 0 0 0 0 0 0 1 2 1 0 0 0 0 0 0 0 0 0 0 0 0 1 2 4 5 6 6
0 0 0 0 0 0 0 0 0 0 3 8 13 13 8 2 0 0 0 0 0 0 0 0 0 0 0 0 1 1 1 0 0 0 0 0 0 0 0 0 0 0 0 0 1 2 3 4 5
0 0 0 0 0 0 0 0 0 0 0 1 1 1 1 0 0 0 0 0 0 0 0 0 0 0 0 0 0 0 0 0 0 0 0 0 0 0 0 0 0 0 0 0 0 1 1 1 1
0 0 0 0 0 0 0 0 0 0 0 0 0 0 0 0 0 0 0 0 0 0 0 0 0 0 0 0 0 0 0 0 0 0 0 0 0 0 0 0 0 0 0 0 0 0 0 0 0
0 0 0 0 0 0 0 0 0 0 0 0 0 0 0 0 0 0 0 0 0 0 0 0 0 0 0 0 0 0 0 0 0 0 0 0 0 0 0 0 0 0 0 0 0 0 0 0 0
0 0 0 0 0 0 0 0 0 0 0 0 0 0 0 0 0 0 0 0 0 0 0 0 0 0 0 0 0 0 0 0 0 0 0 0 0 0 0 0 0 0 0 0 0 0 0 0 0
0 0 0 0 0 0 0 0 0 0 0 0 0 0 0 0 0 0 0 0 0 0 0 0 0 0 0 0 0 0 0 0 0 0 0 0 0 0 0 0 0 0 0 0 0 0 0 0 0
0 0 0 0 0 0 0 0 0 0 0 0 0 0 0 0 0 0 0 0 0 0 0 0 0 0 0 0 0 0 0 0 0 0 0 0 0 0 0 0 0 0 0 0 0 0 0 0 0
0 0 0 0 0 0 0 0 0 0 0 0 0 0 0 0 0 0 0 0 0 0 0 0 0 0 0 0 0 0 0 0 0 0 0 0 0 0 0 0 0 0 0 0 0 0 0 0 0

GEFSSGP_con_prob3kmehi_018.txt.gz
EHI
0 0 0 0 0 0 0 0 0 0 0 0 0 0 0 0 0 0 0 0 0 0 0 0 0 0 0 0 0 1 2 5 6 5 2 0 0 0 0 0 0 0 0 0 0 0 0 0 0
0 0 0 0 0 0 0 0 0 0 0 0 0 0 0 0 0 0 0 0 0 0 0 0 0 0 0 0 0 0 1 3 4 4 1 0 0 0 0 0 0 0 0 0 0 0 0 0 0
0 0 0 0 0 0 0 0 0 0 0 0 0 0 0 0 0 0 0 0 0 0 0 0 0 0 0 0 0 0 0 1 1 1 0 0 0 0 0 0 0 0 0 0 0 0 0 0 0
0 0 0 0 0 0 0 0 0 0 0 0 0 0 0 0 0 0 0 0 0 0 0 0 0 0 0 0 0 0 0 0 0 0 0 0 0 0 0 0 0 0 0 0 0 0 0 0 0
0 0 0 0 0 0 0 0 0 0 0 0 0 0 0 0 0 0 0 0 0 0 0 1 1 0 0 0 0 0 0 0 0 0 0 0 0 0 0 0 0 0 0 0 0 0 0 0 0
0 0 0 0 0 0 0 0 0 0 0 0 0 0 0 0 0 0 0 0 0 0 1 2 2 0 0 0 0 0 0 0 0 0 0 0 0 0 0 0 0 0 0 0 0 0 0 0 0
0 0 0 0 0 0 0 0 0 0 0 0 0 0 0 0 0 0 0 0 0 0 0 1 1 0 0 0 0 1 0 0 0 0 0 0 0 0 0 0 0 0 0 0 0 0 0 0 0
0 0 0 0 0 0 0 0 0 0 0 0 0 0 1 2 1 0 0 0 0 0 0 0 0 0 0 0 1 1 1 0 0 0 0 0 0 0 0 0 0 0 0 0 0 0 0 0 0
0 0 0 0 0 0 0 0 0 0 0 0 0 0 4 6 3 0 0 0 0 0 0 0 0 1 0 1 2 2 2 3 2 1 2 2 1 0 0 1 1 0 0 0 0 0 0 0 0
0 0 0 0 0 0 0 0 0 0 0 0 1 4 9 11 5 0 0 0 0 0 0 0 1 2 1 1 2 2 6 9 6 4 5 6 3 1 1 2 2 1 0 0 0 0 0 0 0
0 0 0 0 0 0 0 0 0 0 0 0 6 18 23 16 5 0 0 0 0 0 0 0 1 2 1 1 2 2 9 15 11 6 9 14 15 11 9 8 5 1 0 0 0 0 0 0 0
0 0 0 0 0 0 0 0 0 0 0 4 20 42 42 21 5 0 0 0 0 0 0 0 0 0 0 0 1 2 7 11 11 9 13 24 32 29 28 32 24 12 5 3 2 1 0 0 0
0 0 0 0 0 0 0 0 0 0 2 12 37 59 52 27 9 4 2 1 0 0 0 0 0 0 0 0 1 1 2 3 7 11 15 25 39 43 47 56 53 35 20 14 9 4 1 1 1
0 0 0 0 0 0 0 0 0 1 5 19 46 65 60 42 25 14 7 2 0 0 0 0 0 1 2 4 4 3 2 1 4 7 8 15 29 37 41 50 52 43 32 24 15 9 6 4 3
0 0 0 0 0 0 0 0 0 1 6 24 53 73 75 65 48 26 9 2 0 1 1 1 3 8 12 14 15 11 6 3 5 6 4 6 13 20 23 26 28 31 32 30 25 20 17 14 12
0 0 0 0 0 0 0 1 2 3 8 30 62 84 88 82 62 32 10 3 2 4 7 8 12 22 28 27 25 21 12 8 10 12 8 4 5 9 12 14 17 24 32 38 40 41 39 34 33
0 0 0 0 0 0 0 1 5 8 15 36 65 86 92 86 67 41 20 13 12 14 17 20 26 38 39 30 26 22 16 12 12 11 8 4 3 5 7 10 14 18 25 33 42 54 59 58 58
0 0 0 0 0 0 0 1 5 10 19 37 61 81 88 84 72 57 43 35 32 30 29 32 38 42 35 23 17 14 11 8 6 4 3 2 1 1 2 3 5 6 9 14 25 39 49 56 62
0 0 0 0 0 0 0 0 3 6 14 29 53 74 82 80 76 71 65 57 48 40 35 33 34 30 19 10 6 4 3 2 1 0 0 0 0 0 0 0 0 0 1 3 8 14 19 28 36
0 0 0 0 0 0 0 0 1 2 5 16 36 58 70 75 78 75 70 60 46 34 27 22 19 14 8 4 2 1 1 0 0 0 0 0 0 0 0 0 0 0 0 0 1 1 2 6 9
0 0 0 0 0 0 0 0 0 0 1 5 16 33 51 68 77 72 59 42 28 20 14 10 8 8 8 8 5 3 2 1 0 0 0 1 0 0 0 0 0 0 0 0 0 0 0 0 1
0 0 0 0 0 0 0 0 0 0 0 1 5 16 35 58 71 62 40 21 13 9 6 4 6 12 17 18 14 9 4 1 0 0 1 2 1 0 0 0 0 0 0 0 0 0 0 0 0
0 0 0 0 0 0 0 0 0 0 0 0 4 12 27 46 56 47 27 12 8 6 3 2 8 20 32 34 27 18 9 2 0 0 1 2 1 0 0 0 0 0 0 0 0 0 0 0 0
0 0 0 0 0 0 0 0 0 0 0 1 6 18 29 38 41 35 25 17 12 8 4 3 9 23 40 45 39 30 19 8 3 1 0 1 0 0 0 0 0 0 0 0 0 0 0 0 0
0 0 0 0 0 0 0 0 0 0 0 1 9 22 30 30 29 26 22 18 14 10 5 5 11 23 37 47 50 48 35 18 6 2 0 0 0 0 0 0 0 0 0 0 0 0 0 0 0
0 0 0 0 0 0 0 0 0 1 1 2 9 17 20 16 13 12 10 9 7 6 5 8 17 30 41 51 63 66 54 30 13 6 3 1 1 0 0 0 0 0 0 0 0 0 0 0 0
0 0 0 0 0 0 0 0 0 1 2 2 4 6 6 4 1 1 1 1 1 2 5 11 22 37 49 59 69 72 63 47 29 16 9 4 3 2 0 0 0 0 0 0 0 0 0 0 0
0 0 0 0 0 0 0 0 0 1 1 1 1 1 1 0 0 0 0 0 0 1 4 8 16 27 39 50 58 63 64 59 46 29 16 9 8 7 3 1 0 0 0 0 0 0 0 0 0
0 0 0 0 0 0 0 0 0 0 0 0 0 0 0 0 0 0 0 0 0 0 1 3 5 10 16 24 32 43 54 57 50 37 24 15 13 12 8 2 0 0 0 0 0 0 0 0 0
0 0 0 0 0 0 0 0 0 0 0 0 0 0 0 0 0 0 0 0 0 0 0 0 0 1 3 6 12 24 38 48 49 39 26 18 15 14 10 4 1 0 0 0 0 0 0 0 0

GEFSSGP_con_prob3kmehi_024.txt.gz
EHI
0 0 0 1 3 5 4 1 0 0 0 0 0 1 2 3 2 1 12 37 44 20 4 6 7 3 0 0 0 0 0 0 0 0 0 0 0 0 0 0 0 0 0 0 0 0 0 0 0
0 0 0 0 1 2 1 0 0 0 0 0 0 0 1 1 1 1 12 31 30 12 2 5 7 4 1 0 0 0 0 0 0 0 0 0 0 0 0 0 0 0 0 0 0 0 0 0 0
0 0 0 0 0 0 0 0 0 0 0 0 0 0 0 0 0 1 9 18 15 5 1 4 7 5 1 0 0 0 0 0 0 0 0 0 0 0 0 0 0 0 0 0 0 0 0 0 0
0 0 0 0 0 0 0 0 0 0 0 0 0 0 0 0 0 1 5 8 7 3 2 3 5 4 1 0 0 0 0 0 0 0 0 0 0 0 0 0 0 0 0 0 0 0 0 0 0
0 0 0 0 0 0 0 0 0 0 0 0 0 0 0 0 0 0 2 4 5 6 5 3 5 4 1 0 0 0 0 0 0 0 0 0 0 0 0 0 0 0 0 0 0 0 0 0 0
0 0 0 0 0 0 0 0 0 0 0 0 0 0 0 0 0 0 0 1 8 15 11 5 6 5 2 1 0 0 0 0 0 0 0 0 0 0 0 0 0 0 0 0 0 0 0 0 0
0 0 0 0 0 0 0 0 0 0 0 0 0 0 0 0 0 0 0 0 12 27 23 8 4 6 4 2 1 0 0 0 0 0 0 0 0 0 0 0 0 0 0 0 0 0 0 0 1
0 0 0 0 0 0 0 0 0 0 0 0 1 1 0 0 0 0 0 0 14 37 36 14 4 6 4 2 2 2 1 1 1 0 0 0 0 0 1 1 0 0 0 0 1 1 1 2 3
0 0 0 0 0 0 0 0 0 0 1 5 9 7 2 0 1 2 1 1 13 38 44 24 17 17 8 6 11 10 5 4 2 1 1 1 1 0 3 7 8 7 7 10 13 11 7 5 5
0 0 0 0 0 0 0 0 0 0 5 17 27 20 8 5 6 5 3 5 14 31 37 34 41 41 19 18 32 23 14 19 19 13 15 20 16 8 7 19 31 29 25 28 33 29 19 9 5
0 0 0 0 0 0 0 0 0 1 9 27 36 28 16 17 20 16 13 19 26 24 21 34 60 64 36 33 50 43 35 50 54 44 48 57 52 36 25 38 58 58 49 46 44 40 29 15 7
0 0 0 0 0 0 0 0 0 2 9 23 29 25 22 28 32 29 32 47 50 29 13 29 66 80 58 41 50 58 60 71 78 78 79 84 84 71 56 62 75 76 71 64 52 46 43 34 26
0 0 0 0 0 0 0 0 0 2 7 13 18 20 23 31 38 44 57 76 75 48 24 38 74 91 78 53 46 58 70 76 83 89 92 92 94 87 76 77 82 78 74 71 64 59 61 61 57
0 0 0 0 0 0 0 0 0 2 6 8 12 18 24 32 45 60 79 92 89 69 51 60 82 94 91 74 60 63 72 79 86 92 95 95 94 89 81 77 76 70 60 57 59 63 68 69 63
0 0 0 0 0 0 0 0 0 1 4 7 9 16 27 38 54 74 90 95 92 84 81 80 82 90 95 89 84 80 80 86 93 95 95 91 89 86 79 68 60 54 46 42 46 52 57 54 47
0 0 0 0 0 0 0 0 0 0 3 5 7 14 32 50 65 80 91 92 91 93 96 90 83 89 96 96 94 90 87 89 89 87 84 77 67 63 60 52 44 41 38 36 39 45 48 42 35
0 0 0 0 0 0 0 0 0 0 1 3 6 15 40 66 77 83 89 90 92 96 98 94 91 93 98 96 89 82 79 74 65 61 63 55 38 30 31 31 30 29 28 26 29 41 46 38 31
0 0 0 0 0 0 0 0 0 0 0 1 5 18 49 78 88 87 89 90 92 94 96 96 96 97 97 91 78 67 60 46 33 35 42 35 18 12 13 14 17 17 13 12 17 26 29 26 23
0 0 0 0 0 0 0 0 0 0 1 3 8 24 54 80 88 87 84 84 85 87 89 92 93 90 86 80 72 62 47 25 14 21 28 21 9 6 6 6 7 6 4 4 6 8 9 9 9
0 0 0 0 0 0 0 0 0 2 4 7 13 28 54 74 78 74 68 64 66 73 77 80 82 75 67 65 59 52 40 20 10 17 27 25 14 7 5 4 4 2 1 1 0 0 0 1 1
0 0 0 0 0 0 0 0 2 7 13 19 24 34 51 61 60 52 42 38 41 49 58 66 71 62 53 48 38 33 33 20 12 21 37 45 33 18 11 7 3 1 0 0 0 0 0 0 0
0 0 0 0 0 0 0 1 5 14 26 36 41 42 42 40 35 27 21 19 20 24 38 56 64 59 51 43 36 34 32 23 23 36 54 60 47 27 18 11 5 1 0 0 0 0 0 0 0
0 0 0 0 0 0 0 1 8 22 39 49 48 40 29 19 13 10 8 7 6 9 23 43 55 58 57 55 58 58 49 39 43 56 67 64 48 33 25 20 13 6 1 0 0 0 0 0 0
0 0 0 0 0 0 0 1 11 30 46 48 38 26 17 8 4 2 2 1 1 4 13 27 39 47 54 61 71 78 74 66 67 70 69 60 48 40 36 33 29 18 6 1 0 0 0 0 0
0 0 0 0 0 0 0 3 14 31 39 33 21 13 9 4 1 0 0 0 0 1 6 13 21 29 37 46 59 72 79 82 83 81 73 62 54 51 51 49 43 29 14 4 0 0 0 0 0
0 0 0 0 0 0 1 6 14 19 19 14 8 5 3 1 0 0 0 0 0 1 2 5 8 13 18 25 34 47 59 69 78 84 83 78 71 68 67 62 49 36 21 9 3 1 0 0 0
0 0 0 0 0 0 2 8 11 8 5 3 1 1 1 0 0 0 0 0 0 0 1 1 2 3 6 9 13 21 29 39 51 65 76 81 82 80 76 68 54 40 27 17 9 3 0 0 0
0 0 0 0 0 0 1 5 9 5 1 0 0 0 0 0 0 0 0 0 0 0 0 0 0 0 1 1 3 5 9 14 22 33 45 56 67 74 75 69 57 43 30 22 14 6 1 0 0
0 0 0 0 0 0 0 2 4 3 0 0 0 0 0 0 0 0 0 0 0 0 0 0 0 0 0 0 0 0 1 3 5 10 16 23 35 47 56 60 54 40 27 22 17 8 2 0 0
0 0 0 0 0 0 0 0 1 0 0 0 0 0 0 0 0 0 0 0 0 0 0 0 0 0 0 0 0 0 0 0 0 1 3 7 13 22 34 47 48 34 22 21 16 7 1 0 0

GEFSSGP_con_prob3kmehi_030.txt.gz
EHI
0 0 0 0 0 0 0 0 0 0 0 0 0 1 2 3 1 0 0 0 1 4 9 19 32 34 23 10 2 0 0 0 0 0 0 0 0 0 0 0 0 0 0 0 0 0 0 0 0
0 0 0 0 0 0 0 0 0 0 0 0 0 0 1 2 1 0 0 0 2 7 12 26 44 47 31 14 4 1 0 0 0 0 0 0 0 0 0 0 0 0 0 0 0 0 0 0 0
0 0 0 0 0 0 0 0 0 0 0 0 0 0 0 1 0 0 0 0 3 7 15 37 62 63 45 24 8 1 0 0 0 0 0 0 0 0 0 0 0 0 0 0 0 0 0 0 0
0 0 0 0 0 0 0 0 0 0 0 0 0 0 0 2 4 4 1 0 2 4 16 47 75 78 62 41 20 7 2 1 0 0 0 0 0 0 0 0 0 0 0 0 0 0 0 0 0
0 0 0 0 0 0 0 0 0 0 0 0 0 0 0 6 13 9 2 0 1 4 17 49 80 87 76 57 34 15 6 2 1 0 0 0 0 0 0 0 0 0 0 0 0 0 0 0 0
0 0 0 0 0 0 0 0 0 0 0 0 0 0 0 9 16 10 1 0 1 4 15 41 68 80 77 62 39 19 8 4 2 0 0 0 0 0 0 0 0 0 0 0 0 0 0 0 0
0 0 0 0 0 0 0 0 0 0 0 0 0 0 0 6 11 7 1 1 1 2 11 27 40 51 56 47 30 16 7 3 2 0 0 0 0 0 0 0 0 0 0 0 0 0 0 0 0
0 0 0 0 0 0 0 0 0 0 0 0 0 0 1 6 10 10 9 7 3 1 6 15 20 25 27 24 17 11 5 2 1 0 0 0 0 0 0 0 0 0 0 0 0 0 0 0 0
0 0 0 0 0 0 0 0 0 0 0 0 0 1 5 12 19 25 29 26 15 6 4 9 14 16 16 13 9 6 3 1 0 0 0 0 0 0 0 0 0 0 0 0 0 0 0 0 0
0 0 0 0 0 0 0 0 0 1 1 1 1 4 10 19 28 39 50 53 40 21 9 7 12 16 16 13 8 5 2 0 0 0 0 0 0 0 0 0 0 0 0 0 0 0 0 0 1
0 0 0 0 0 0 0 0 0 1 2 1 1 6 13 21 28 39 56 68 64 43 20 9 10 14 14 10 7 6 3 1 0 0 0 0 0 0 0 0 0 0 0 1 1 0 0 1 2
0 0 0 0 0 0 0 0 0 1 1 2 2 6 11 16 21 30 46 64 72 60 35 16 10 9 8 6 6 6 4 2 1 1 1 2 2 1 0 0 0 0 0 1 1 0 0 1 2
0 0 0 0 0 0 0 0 0 1 2 4 5 6 7 9 14 24 36 52 66 64 47 27 15 9 7 8 9 8 7 6 6 5 6 12 13 7 2 1 0 0 0 1 1 0 1 2 3
0 0 0 0 0 0 0 0 0 2 6 10 10 8 7 8 15 27 37 47 56 58 50 38 26 18 17 20 22 22 22 23 22 19 21 29 29 16 5 2 0 0 0 0 0 0 1 2 2
0 0 0 0 0 0 0 0 1 7 18 21 15 10 10 12 21 35 41 44 46 47 45 42 36 30 32 39 45 47 48 48 43 37 38 43 36 20 8 2 0 0 0 0 0 0 0 0 1
0 0 0 0 0 0 0 0 2 12 25 28 20 15 16 19 26 34 36 35 34 33 33 34 35 36 41 51 60 63 63 59 50 43 43 42 31 18 7 1 0 0 0 0 0 0 0 0 0
0 0 0 0 0 0 0 2 6 15 24 26 25 25 27 29 28 25 24 24 20 17 18 20 25 31 39 48 55 55 52 45 36 32 31 26 19 12 5 1 0 0 0 0 0 0 0 0 0
0 0 0 0 0 0 2 5 10 17 22 26 31 35 38 35 25 16 14 14 11 8 9 11 14 19 26 33 35 34 30 23 18 16 14 10 7 5 2 0 0 0 0 0 0 0 0 0 0
0 0 0 0 0 0 2 5 8 12 18 26 33 37 37 29 16 9 7 7 6 4 5 6 7 7 10 14 16 15 13 9 7 6 4 2 1 1 0 0 0 0 0 0 0 0 0 0 0
0 0 0 0 0 0 1 1 2 5 9 18 27 29 24 15 7 3 2 2 2 2 2 2 2 1 2 4 5 4 3 3 3 2 1 0 0 0 0 0 0 0 0 0 0 0 0 0 0
0 0 0 0 0 0 0 0 0 1 4 9 15 16 11 5 2 1 0 0 0 0 0 0 0 0 0 1 2 1 1 1 1 0 0 0 0 0 0 0 0 0 0 0 0 0 0 0 0
0 0 0 0 0 0 0 0 0 0 1 3 6 6 4 1 0 0 0 0 0 0 0 0 0 0 0 0 0 1 1 1 0 0 0 0 0 0 1 1 0 0 0 0 0 0 0 0 0
0 0 0 0 0 0 0 0 0 0 0 1 1 2 1 0 0 0 0 0 0 0 0 0 0 0 0 0 0 0 0 0 0 0 0 0 0 0 1 2 1 0 0 0 0 0 0 0 0
0 0 0 0 0 0 0 0 0 0 0 0 0 0 0 0 0 0 0 0 0 0 0 0 0 0 0 0 0 0 0 0 0 0 0 0 0 0 1 2 1 0 0 0 0 0 0 0 0
0 0 0 0 0 0 0 0 0 0 0 0 0 0 0 0 0 0 0 0 0 0 0 0 0 0 0 0 0 0 0 0 0 0 0 0 0 0 0 1 1 0 0 0 0 0 0 0 0
0 0 0 0 0 0 0 0 0 0 0 0 0 0 0 0 0 0 0 0 0 0 0 0 0 0 0 0 0 0 0 0 0 0 0 0 0 0 0 0 0 0 0 0 0 0 0 0 0
0 0 0 0 0 0 0 0 0 0 0 0 0 0 0 0 0 0 0 0 0 0 0 0 0 0 0 0 0 0 0 0 0 0 0 0 0 0 0 0 0 0 0 0 0 0 0 0 0
0 0 0 0 0 0 0 0 0 0 0 0 0 0 0 0 0 0 0 0 0 0 0 0 0 0 0 0 0 0 0 0 0 0 0 0 0 0 0 0 0 0 0 0 0 0 0 0 0
0 0 0 0 0 0 0 0 0 0 0 0 0 0 0 0 0 0 0 0 0 0 0 0 0 0 0 0 0 0 0 0 0 0 0 0 0 0 0 0 0 0 0 0 0 0 0 0 0
0 0 0 0 0 0 0 0 0 0 0 0 0 0 0 0 0 0 0 0 0 0 0 0 0 0 0 0 0 0 0 0 0 0 0 0 0 0 0 0 0 0 0 0 0 0 0 0 0

GEFSSGP_con_prob3kmehi_036.txt.gz
EHI
0 0 0 0 0 0 0 0 0 0 0 0 0 0 0 1 1 0 0 0 0 2 4 10 20 25 17 6 2 4 7 9 10 9 7 5 3 2 1 0 0 0 0 0 0 0 0 0 0
0 0 0 0 0 0 0 0 0 0 0 0 0 0 0 1 2 1 0 0 1 3 4 13 28 36 28 13 5 3 5 7 7 6 5 3 1 1 0 0 0 0 0 0 0 0 0 0 0
0 0 0 0 0 0 0 0 0 0 0 0 0 0 0 1 1 1 0 0 2 4 5 20 44 54 44 25 9 3 3 3 2 2 1 1 0 0 0 0 0 0 0 0 0 0 0 0 0
0 0 0 0 0 0 0 0 0 0 0 0 0 0 0 0 0 0 0 1 4 8 10 28 59 70 58 37 17 6 2 1 1 0 0 0 0 0 0 0 0 0 0 0 0 0 0 0 0
0 0 0 0 0 0 0 0 0 0 0 0 0 0 0 0 0 0 0 1 9 18 22 40 71 83 71 50 29 13 5 2 2 1 0 0 0 0 0 0 0 0 0 0 0 0 0 0 0
0 0 0 0 0 0 0 0 0 0 0 0 0 0 0 0 0 0 0 2 13 31 41 55 77 87 82 65 43 25 13 7 4 2 1 0 0 0 0 0 0 0 0 0 0 0 0 0 0
0 0 0 0 0 0 0 0 0 0 0 0 0 0 0 1 1 1 1 5 20 40 55 63 72 80 81 71 52 35 23 14 8 4 1 0 0 0 0 0 0 0 0 0 0 0 0 0 0
0 0 0 0 0 0 0 0 0 0 0 0 0 0 2 7 9 8 8 15 30 45 56 62 65 69 71 64 51 38 28 18 10 5 2 0 0 0 0 0 0 0 0 0 0 0 0 0 0
0 0 0 0 0 0 0 0 0 0 0 0 0 2 11 26 32 26 23 26 35 42 48 53 58 62 61 54 43 35 26 17 10 6 2 0 0 0 0 0 0 0 0 0 0 0 0 0 0
0 0 0 0 0 0 0 0 0 0 0 0 1 6 25 47 55 47 37 32 30 31 36 41 47 53 54 48 39 32 26 18 13 8 4 2 1 1 1 1 0 0 0 0 0 0 0 0 1
0 0 0 0 0 0 0 0 0 0 0 0 1 12 35 57 64 56 44 34 27 25 29 34 39 43 44 42 36 32 30 25 19 13 9 6 4 3 2 2 1 0 0 0 0 0 0 0 1
0 0 0 0 0 0 0 0 0 0 0 0 3 15 36 52 58 53 45 37 32 28 27 30 35 37 36 34 31 31 31 29 24 19 16 12 8 4 3 3 1 0 0 1 1 0 0 0 1
0 0 0 0 0 0 0 0 0 0 0 2 7 17 28 36 39 39 36 35 35 32 26 25 28 30 29 25 22 23 25 25 24 23 22 17 11 5 3 3 2 1 0 1 1 1 0 0 0
0 0 0 0 0 0 0 0 1 1 2 5 12 19 21 19 20 21 23 26 29 28 23 17 16 17 17 14 12 13 16 19 22 22 19 15 10 5 3 3 2 1 0 0 1 1 0 0 0
0 0 0 0 0 0 0 0 2 4 5 9 15 20 18 12 9 9 11 14 17 17 13 8 7 6 5 4 5 8 10 14 17 17 12 9 7 5 2 1 1 1 0 0 0 0 0 0 0
0 0 0 0 0 0 0 0 2 5 7 10 13 14 14 9 6 5 5 6 7 6 4 3 2 2 2 2 4 7 9 10 12 11 8 6 6 4 2 0 0 0 1 1 1 0 0 0 0
0 0 0 0 0 0 0 1 2 4 7 8 9 9 7 5 4 4 3 3 3 2 2 1 1 2 3 4 4 4 6 7 6 7 7 6 6 5 2 0 0 0 1 2 1 0 0 0 0
0 0 0 0 0 0 0 1 2 2 3 4 5 5 4 2 2 1 1 1 1 1 1 0 1 2 3 3 2 1 2 3 3 4 6 6 6 5 2 0 0 0 1 1 1 0 0 0 0
0 0 0 0 0 0 0 1 1 1 0 1 3 3 1 1 0 0 0 0 0 0 0 0 0 1 1 1 0 0 0 1 2 4 5 4 3 3 1 0 0 0 0 0 0 0 0 0 0
0 0 0 0 0 0 0 0 0 0 0 0 1 1 0 0 0 0 0 0 0 0 0 0 0 0 0 0 0 0 0 1 2 2 2 1 1 1 0 0 0 0 0 0 0 0 0 0 0
0 0 0 1 0 0 0 0 0 0 0 0 0 0 0 0 0 0 0 0 0 0 0 0 0 0 0 0 0 0 0 0 1 1 1 0 0 0 0 0 0 0 0 0 0 0 0 0 0
0 0 1 2 1 0 0 0 0 0 0 0 0 0 0 0 0 0 0 0 0 0 0 0 0 0 0 0 0 0 0 0 0 0 0 0 0 0 0 0 0 0 0 0 0 0 0 0 0
0 0 0 1 0 0 0 0 0 0 0 0 0 0 0 0 0 0 0 0 0 0 0 0 0 0 0 0 0 0 0 0 0 0 0 0 0 0 0 0 0 0 0 0 0 0 0 0 0
0 0 0 0 0 0 0 0 0 0 0 0 0 0 0 0 0 0 0 0 0 0 0 0 0 0 0 0 0 0 0 0 0 0 0 0 0 0 0 0 0 0 0 0 0 0 0 0 0
0 0 0 0 0 0 0 0 0 0 0 0 0 0 0 0 0 0 0 0 0 0 0 0 0 0 0 0 0 0 0 0 0 0 0 0 0 0 0 0 0 0 0 0 0 0 0 0 0
0 0 0 0 0 0 0 0 0 0 0 0 0 0 0 0 0 0 0 0 0 0 0 0 0 0 0 0 0 0 0 0 0 0 0 0 0 0 0 0 0 0 0 0 0 0 0 0 0
0 0 0 0 0 0 0 0 0 0 0 0 0 0 0 0 0 0 0 0 0 0 0 0 0 0 0 0 0 0 0 0 0 0 0 0 0 0 0 0 0 0 0 0 0 0 0 0 0
0 0 0 0 0 0 0 0 0 0 0 0 0 0 0 0 0 0 0 0 0 0 0 0 0 0 0 0 0 0 0 0 0 0 0 0 0 0 0 0 0 0 0 0 0 0 0 0 0
0 0 0 0 0 0 0 0 0 0 0 0 0 0 0 0 0 0 0 0 0 0 0 0 0 0 0 0 0 0 0 0 0 0 0 0 0 0 0 0 0 0 0 0 0 0 0 0 0
0 0 0 0 0 0 0 0 0 0 0 0 0 0 0 0 0 0 0 0 0 0 0 0 0 0 0 0 0 0 0 0 0 0 0 0 0 0 0 0 0 0 0 0 0 0 0 0 0

GEFSSGP_con_prob3kmehi_042.txt.gz
EHI
0 0 0 0 0 0 0 0 0 0 0 0 0 0 0 0 0 0 0 0 2 20 38 28 7 0 0 0 0 1 3 10 20 24 19 9 2 0 0 0 0 0 0 0 0 0 0 0 0
0 0 0 0 0 0 0 0 0 0 0 0 0 0 0 0 0 0 0 0 2 16 30 24 8 1 0 0 0 0 2 7 15 19 16 8 2 0 0 0 0 0 0 0 0 0 0 0 0
0 0 0 0 0 0 0 0 0 0 0 0 0 0 0 0 0 0 0 0 1 8 21 22 10 2 0 0 0 0 1 5 9 11 10 6 1 0 0 0 0 0 0 0 0 0 0 0 0
0 0 0 0 0 0 0 0 0 0 0 0 0 0 0 0 0 0 0 0 0 2 11 18 12 3 0 0 0 0 1 3 4 5 4 3 1 0 0 0 0 0 0 0 0 0 0 0 0
0 0 0 0 0 0 0 0 0 0 0 0 0 0 0 0 0 0 0 0 0 0 5 11 10 4 1 1 0 0 0 1 1 1 1 1 0 0 0 0 0 0 0 0 0 0 0 0 0
0 0 0 0 0 0 0 0 0 0 0 0 0 0 0 1 1 1 1 0 0 1 3 7 7 4 2 1 0 0 0 0 0 0 0 0 0 0 0 0 0 0 0 0 0 0 0 0 0
0 0 0 0 0 0 0 0 0 0 0 0 1 0 1 5 9 9 6 4 2 2 3 5 5 4 3 2 1 1 1 1 1 0 0 0 0 0 0 0 1 1 1 0 0 0 0 0 0
0 0 0 0 0 0 0 0 0 0 0 1 2 2 9 21 28 26 21 14 8 5 4 4 4 5 5 5 5 5 5 5 4 4 3 2 1 0 0 1 2 2 1 1 1 0 0 0 0
0 0 0 0 0 0 0 0 0 0 0 1 2 4 17 38 49 46 40 32 22 14 9 8 9 12 12 12 13 14 13 12 12 12 11 7 4 1 2 5 7 5 2 2 2 1 1 1 1
0 0 0 0 0 0 0 0 0 0 1 1 3 5 16 35 50 53 52 48 40 29 20 17 20 23 22 21 24 24 25 28 27 26 26 23 16 10 9 14 17 11 5 3 3 2 1 2 3
0 0 0 0 0 0 0 0 1 2 3 3 5 7 9 20 34 45 50 54 52 43 32 27 30 33 32 31 31 32 37 46 46 44 46 47 42 33 27 27 27 21 15 12 13 11 6 3 4
0 0 0 0 0 0 0 0 3 6 8 8 10 12 13 18 27 35 43 48 51 45 37 33 36 39 39 37 34 34 40 47 52 53 56 61 64 59 50 47 41 32 27 26 27 26 14 7 6
0 0 0 0 0 0 0 1 4 8 11 15 20 23 26 32 36 40 42 42 42 39 35 34 35 36 37 36 33 30 32 36 42 48 52 57 67 68 65 66 59 42 32 32 31 26 18 12 11
0 0 0 0 0 0 0 2 4 7 11 19 27 30 35 42 45 46 45 41 38 35 32 30 28 26 26 27 26 24 24 27 32 38 42 46 55 62 64 68 65 49 36 35 30 21 15 14 14
0 0 0 0 0 0 1 2 4 6 10 16 21 23 27 32 34 35 37 38 35 32 27 23 18 16 16 17 17 17 18 20 23 26 30 34 40 47 53 58 57 49 42 42 36 24 15 13 12
0 0 0 0 0 0 1 2 4 6 8 9 10 10 11 13 14 15 19 22 23 22 20 16 11 8 9 9 9 10 10 11 12 14 18 21 26 32 38 44 44 42 42 41 35 26 18 12 9
0 0 0 0 0 0 1 3 5 6 6 5 4 2 2 2 2 3 5 8 10 11 11 9 5 3 2 4 5 5 5 6 6 6 8 11 15 21 28 32 30 29 33 32 26 23 16 10 7
0 0 0 0 0 0 1 2 4 5 4 2 1 0 0 0 0 0 1 2 3 4 5 4 2 1 0 2 4 4 4 4 4 4 3 4 6 11 18 21 19 19 22 22 20 17 13 9 6
0 0 0 0 0 0 0 1 1 2 1 1 1 0 0 0 0 0 0 1 1 1 2 2 1 0 0 2 3 4 4 4 4 3 1 0 1 4 9 12 13 15 17 17 14 11 9 6 5
0 0 0 0 0 0 0 0 0 0 0 0 0 0 0 0 0 0 0 0 0 0 1 1 0 0 0 1 1 2 3 4 4 2 0 0 0 1 2 5 9 12 13 12 10 8 5 3 2
0 0 0 0 0 0 0 0 0 0 0 0 0 0 0 0 0 0 0 0 0 0 0 0 0 0 0 0 0 1 1 1 1 0 0 0 0 0 0 2 5 7 10 10 8 5 4 3 1
0 0 0 0 0 0 0 0 0 0 0 0 0 0 0 0 0 0 0 0 0 0 0 0 0 0 0 0 0 0 0 0 0 0 0 0 0 0 0 0 1 4 7 8 5 3 3 3 2
0 0 0 0 0 0 0 0 1 1 0 0 0 0 0 0 0 0 0 0 0 0 0 0 0 0 0 0 0 0 0 0 0 0 0 0 0 0 0 0 0 1 4 4 4 3 2 2 1
0 0 0 0 0 0 0 2 4 4 1 0 0 0 0 0 0 0 0 0 0 0 0 0 0 0 0 0 0 0 0 0 0 0 0 0 0 0 0 0 0 0 1 2 3 3 2 1 1
0 0 0 0 0 0 0 3 7 5 1 0 0 0 0 0 0 0 0 0 0 0 0 0 0 0 0 0 0 0 0 0 0 0 0 0 0 0 0 0 0 0 0 1 1 2 2 1 1
0 0 0 0 0 0 0 4 7 4 0 0 0 0 0 0 0 0 0 0 0 0 0 0 0 0 0 0 0 0 0 0 0 0 0 0 0 0 0 0 0 0 0 0 0 1 1 1 0
0 0 0 0 0 0 0 2 2 1 0 0 0 0 0 0 0 0 0 0 0 0 0 0 0 0 0 0 0 0 0 0 0 0 0 0 0 0 0 0 0 0 0 0 0 0 0 0 0
0 0 0 0 0 0 0 0 0 0 0 0 0 0 0 0 0 0 0 0 0 0 0 0 0 0 0 0 0 0 0 0 0 0 0 0 0 0 0 0 0 0 0 0 0 0 0 0 0
0 0 0 0 0 0 0 0 0 0 0 0 0 0 0 0 0 0 0 0 0 0 0 0 0 0 0 0 0 0 0 0 0 0 0 0 0 0 0 0 0 0 0 0 0 0 0 0 0
0 0 0 0 0 0 0 0 0 0 0 0 0 0 0 0 0 0 0 0 0 0 0 0 0 0 0 0 0 0 0 0 0 0 0 0 0 0 0 0 0 0 0 0 0 0 0 0 0

GEFSSGP_con_prob3kmehi_048.txt.gz
EHI
0 0 0 0 3 4 2 0 0 0 0 0 0 0 1 1 1 0 12 48 78 68 41 29 20 8 1 0 0 0 0 0 0 0 0 0 1 1 0 0 0 0 0 0 0 0 0 0 0
0 0 0 2 4 3 1 0 0 0 0 0 0 0 0 0 0 1 15 49 70 52 26 18 13 4 1 1 1 1 2 2 1 1 1 1 1 1 0 0 0 0 0 0 0 0 0 0 0
0 0 0 2 4 2 0 0 0 0 0 0 1 1 0 0 0 1 17 47 58 36 15 10 5 1 0 1 3 4 4 4 4 3 2 1 1 1 0 0 0 0 1 2 1 0 0 0 0
0 0 0 1 2 1 0 0 0 0 0 1 3 3 1 0 0 1 15 40 46 30 17 10 4 1 0 1 2 3 4 4 3 3 3 2 2 1 1 1 1 2 4 3 2 1 0 0 0
0 0 0 0 0 0 0 0 0 0 0 2 7 9 5 1 0 1 11 27 33 32 27 15 6 2 0 0 1 1 1 1 1 2 4 4 2 1 1 3 4 7 8 6 4 3 2 1 0
0 0 0 0 0 0 0 0 0 0 0 2 9 14 9 2 0 1 5 13 27 43 41 22 8 3 1 0 0 0 0 0 1 2 3 4 2 1 2 5 9 13 14 12 8 5 4 3 2
0 0 0 0 0 0 0 0 0 0 1 4 11 16 12 5 2 0 1 7 26 51 49 24 7 4 1 0 0 0 0 0 1 2 3 3 3 1 2 6 12 18 22 21 16 11 9 8 6
0 0 0 0 0 0 0 0 0 2 5 10 18 22 18 11 5 2 2 6 23 48 47 22 8 6 3 2 2 1 0 0 0 1 1 1 1 1 2 8 15 24 30 32 29 25 22 19 16
0 0 0 0 0 0 0 0 1 4 11 19 26 27 21 14 9 7 6 7 19 38 39 25 20 18 10 10 12 6 0 1 1 2 4 4 3 2 6 15 27 35 40 42 42 41 39 31 23
0 0 0 0 0 0 0 1 2 9 21 31 34 30 21 16 16 16 15 15 21 29 31 35 45 43 27 27 32 17 7 13 13 12 20 22 16 10 12 30 48 53 52 52 53 55 51 39 27
0 0 0 0 0 0 0 3 10 20 33 42 44 39 31 27 29 31 32 35 37 33 32 46 66 67 48 43 46 30 24 35 35 32 41 48 42 30 26 42 65 70 66 63 64 64 58 43 31
0 0 0 0 0 0 2 8 21 34 44 49 54 57 53 50 51 54 57 61 61 51 45 56 74 77 64 54 52 46 42 45 49 51 56 64 67 56 45 51 65 73 72 70 69 67 59 47 38
0 0 0 0 0 1 4 11 25 39 48 53 62 71 73 74 77 79 79 80 79 69 61 66 76 78 71 63 58 55 50 44 48 57 63 68 73 70 60 56 57 60 62 63 63 60 57 54 50
0 0 0 0 0 1 4 11 24 37 46 53 62 72 80 85 89 91 89 87 84 78 73 72 73 72 70 66 60 51 45 42 46 57 63 64 68 68 64 59 52 48 48 48 49 48 50 54 55
0 0 0 0 0 0 4 13 25 36 41 45 50 58 68 76 81 82 81 81 80 78 77 73 67 64 64 61 53 43 37 36 43 52 55 55 56 57 57 56 51 46 42 38 33 32 36 41 42
0 0 0 0 0 0 5 17 29 33 34 32 31 35 44 54 59 60 61 64 65 65 65 61 56 53 51 46 39 33 29 30 37 44 44 42 40 40 42 45 45 43 39 32 23 19 21 24 24
0 0 0 0 0 1 7 19 26 26 24 19 15 16 22 29 33 35 36 39 41 43 45 43 41 39 37 32 29 26 25 27 30 33 33 30 26 25 26 29 31 31 29 23 15 11 12 13 12
0 0 0 0 1 3 9 16 17 15 13 11 8 7 10 12 14 14 15 16 18 22 26 28 27 27 26 25 25 26 25 25 25 26 25 22 17 15 16 16 17 18 17 13 9 8 7 7 5
0 0 0 0 1 4 8 10 8 5 5 6 6 6 6 5 3 3 4 4 5 8 12 16 17 16 16 18 20 20 19 18 18 18 17 14 11 10 10 9 9 8 7 6 5 5 4 3 3
0 0 0 0 1 3 6 7 5 3 2 3 5 5 4 3 1 0 1 1 1 2 4 6 6 6 7 8 10 9 8 7 8 9 9 7 6 7 7 6 5 4 3 3 3 3 2 2 2
0 0 0 0 0 1 3 6 9 7 3 1 2 2 2 1 0 0 1 1 2 2 2 3 4 4 4 4 4 3 2 1 1 2 3 2 2 3 4 4 2 2 3 3 2 1 1 1 1
0 0 0 0 0 0 1 6 13 11 3 0 1 1 1 0 0 0 1 2 2 2 2 4 7 7 6 4 2 1 0 0 0 0 0 0 0 0 1 1 1 2 2 1 1 0 0 0 0
0 0 0 0 0 0 0 4 10 9 3 0 1 1 1 0 0 0 0 1 1 1 1 4 8 10 9 5 2 0 0 0 0 0 0 0 0 0 0 0 0 1 1 0 0 0 0 0 0
0 0 0 0 0 0 0 1 4 4 3 2 2 1 0 0 0 0 0 0 1 1 0 2 6 8 7 4 1 0 0 0 0 0 0 0 0 0 0 0 0 0 0 0 0 0 0 0 0
0 0 0 0 0 0 0 1 3 3 2 3 3 1 0 0 0 0 0 0 1 1 0 1 2 3 2 1 0 0 0 0 0 0 0 0 0 0 0 0 0 0 0 0 0 0 0 1 1
0 0 0 0 0 0 1 2 4 4 2 1 1 0 0 0 0 0 0 0 1 1 0 0 0 0 0 0 0 0 0 0 0 0 0 0 0 0 0 0 0 0 0 0 0 0 0 0 0
0 0 0 0 0 0 1 3 3 2 1 0 0 0 0 0 0 0 0 0 0 0 0 0 0 0 0 0 0 0 0 0 0 0 0 0 0 0 0 0 0 0 0 0 0 0 0 0 0
0 0 0 0 0 0 1 1 1 0 0 0 0 0 0 0 0 0 0 0 0 0 0 0 0 0 0 0 0 0 0 0 0 0 0 0 0 0 0 0 0 0 0 0 0 0 0 0 0
0 0 0 0 0 0 0 0 0 0 0 0 0 0 0 0 0 0 0 0 0 0 0 0 0 0 0 0 0 0 0 0 0 0 0 0 0 0 0 0 0 0 0 0 0 0 0 0 0
0 0 0 0 0 0 0 0 0 0 0 0 0 0 0 0 0 0 0 0 0 0 0 0 0 0 0 0 0 0 0 0 0 0 0 0 0 0 0 0 0 0 0 0 0 0 0 0 0

GEFSSGP_con_prob3kmehi_054.txt.gz
EHI
1 1 0 0 0 0 0 0 0 0 0 0 0 0 0 0 0 0 4 17 37 49 48 51 63 74 77 72 59 34 10 0 0 0 0 0 0 0 0 0 0 0 0 0 0 0 0 0 0
1 0 0 0 0 0 0 0 0 0 0 0 0 0 0 1 2 1 5 18 36 45 44 48 63 73 77 74 61 38 14 2 0 0 0 0 0 0 0 0 0 0 0 0 0 0 1 1 0
0 0 0 0 0 1 2 2 2 3 2 1 0 0 0 1 4 5 9 19 30 35 37 46 61 71 77 76 63 43 23 8 3 1 0 0 0 0 0 0 0 0 0 0 0 0 1 1 1
0 0 0 0 0 2 4 6 7 9 7 2 0 0 0 5 11 14 15 18 23 25 26 37 55 67 73 72 61 44 29 17 9 4 1 0 0 0 0 0 0 0 0 1 1 1 1 1 0
0 0 0 0 0 2 5 8 12 15 12 5 1 1 3 12 23 22 14 13 16 17 14 22 41 56 62 60 53 42 32 23 15 8 4 1 0 0 0 0 0 0 0 2 3 1 0 0 0
0 0 0 0 0 1 3 7 15 21 19 11 5 3 7 17 25 20 10 8 9 8 6 10 24 38 43 45 42 37 30 21 14 9 5 3 1 0 1 1 1 1 2 4 5 3 2 1 2
0 0 0 0 0 0 2 8 18 27 27 19 9 6 8 14 19 20 16 11 7 5 5 6 12 19 24 27 28 26 21 14 9 6 3 3 2 1 1 1 1 1 5 7 7 7 6 6 5
0 0 0 0 0 0 3 12 22 30 31 25 16 9 9 13 21 31 32 23 12 7 6 6 7 9 11 13 14 13 11 7 5 3 2 2 2 1 0 0 0 1 5 8 10 13 14 13 10
0 0 0 0 0 2 7 16 25 32 38 35 26 18 16 20 32 47 50 37 21 10 6 4 5 4 4 5 5 5 4 3 3 3 3 2 1 0 0 0 2 4 7 11 14 19 24 21 16
0 0 0 0 2 6 12 20 26 36 45 45 37 31 31 33 42 57 62 50 31 17 9 6 5 3 3 3 4 3 2 1 2 2 2 2 2 1 0 1 4 8 11 14 21 28 33 31 26
0 0 0 0 2 8 15 25 34 42 48 49 47 47 49 51 54 62 66 61 47 33 25 22 20 15 10 9 8 6 3 3 4 3 2 2 2 2 1 1 3 7 13 19 29 39 43 40 37
0 0 0 1 4 10 19 32 47 51 51 55 61 66 69 70 70 71 72 68 62 54 49 48 45 36 27 23 20 15 11 11 10 7 5 4 5 4 3 2 3 8 16 24 34 43 43 39 38
0 0 0 2 7 15 27 42 55 57 55 62 73 79 82 82 81 79 77 74 71 67 63 62 59 51 42 38 35 30 26 24 20 16 12 11 10 8 6 5 6 9 14 20 27 31 28 25 23
0 0 0 2 9 18 34 50 58 57 57 61 68 74 77 78 77 77 76 74 70 65 61 58 55 49 43 39 38 36 34 30 26 22 19 17 15 11 7 6 6 7 9 11 12 12 11 9 8
0 0 0 2 5 14 31 48 51 50 52 54 55 57 58 60 60 61 63 61 56 50 45 42 40 36 31 27 25 25 24 22 20 18 17 16 14 9 5 4 4 4 5 5 3 2 3 3 2
0 0 0 0 1 8 23 35 35 35 40 42 39 37 37 38 37 38 40 40 35 28 23 23 23 21 17 14 14 13 13 13 12 10 9 9 7 5 2 1 2 2 2 1 0 0 1 1 1
0 0 0 0 0 5 15 23 23 23 27 26 21 18 18 18 18 18 19 19 16 10 7 8 9 7 6 6 7 8 8 9 8 6 4 3 2 1 0 0 0 0 0 0 0 0 0 0 0
0 0 0 0 1 5 11 18 19 18 17 14 9 7 6 6 6 6 6 6 4 2 1 1 1 1 1 2 2 3 3 4 4 3 2 0 0 0 0 0 0 0 0 0 0 0 0 0 0
0 0 0 0 1 5 10 13 14 12 10 8 5 4 3 2 1 1 1 1 0 0 0 0 0 0 0 0 0 0 0 1 1 1 0 0 0 0 0 0 0 0 0 0 0 0 0 0 0
0 0 0 0 1 4 7 9 8 6 5 4 4 3 2 1 0 0 0 0 0 0 0 0 0 0 0 0 0 0 0 0 0 0 0 0 0 0 0 0 0 0 0 0 0 0 0 0 0
0 0 0 0 0 2 4 5 4 3 2 2 3 2 1 0 0 0 0 0 0 0 0 0 0 0 0 0 0 0 0 0 0 0 0 0 0 0 0 0 0 0 0 0 0 0 0 0 0
0 0 0 0 0 0 1 2 2 1 1 1 1 1 1 0 0 0 0 0 0 0 0 0 0 0 0 0 0 0 0 0 0 0 0 0 0 0 0 0 0 0 0 0 0 0 0 0 0
0 0 0 0 0 0 0 0 0 1 0 0 0 0 1 1 1 1 0 0 0 0 0 0 0 0 0 0 0 0 0 0 0 0 0 0 0 0 0 0 0 0 0 0 0 0 0 0 0
0 0 0 0 0 0 0 0 0 0 0 0 0 0 1 2 1 1 0 0 0 0 0 0 0 0 0 0 0 0 0 0 0 0 0 0 0 0 0 0 0 0 0 0 0 0 0 0 0
0 0 0 0 0 0 0 0 0 0 0 0 0 0 1 1 1 0 0 0 0 0 0 0 0 0 0 0 0 0 0 0 0 0 0 0 0 0 0 0 0 0 0 0 0 0 0 0 0
0 0 0 0 0 0 0 0 0 0 0 0 0 0 0 0 0 0 0 0 0 0 0 0 0 0 0 0 0 0 0 0 0 0 0 0 0 0 0 0 0 0 0 0 0 0 0 0 0
0 0 0 0 0 0 0 0 0 0 0 0 0 0 0 0 0 0 0 0 0 0 0 0 0 0 0 0 0 0 0 0 0 0 0 0 0 0 0 0 0 0 0 0 0 0 0 0 0
0 0 0 0 0 0 0 0 0 0 0 0 0 0 0 0 0 0 0 0 0 0 0 0 0 0 0 0 0 0 0 0 0 0 0 0 0 0 0 0 0 0 0 0 0 0 0 0 0
0 0 0 0 0 0 0 0 0 0 0 0 0 0 0 0 0 0 0 0 0 0 0 0 0 0 0 0 0 0 0 0 0 0 0 0 0 0 0 0 0 0 0 0 0 0 0 0 0
0 0 0 0 0 0 0 0 0 0 0 0 0 0 0 0 0 0 0 0 0 0 0 0 0 0 0 0 0 0 0 0 0 0 0 0 0 0 0 0 0 0 0 0 0 0 0 0 0

GEFSSGP_con_prob3kmehi_060.txt.gz
EHI
0 0 0 0 0 0 0 0 0 0 0 0 0 3 5 3 0 0 0 1 8 14 8 8 23 42 61 71 68 56 45 42 44 44 41 35 23 11 3 1 0 0 0 0 0 0 0 0 0
0 0 0 0 0 0 0 0 0 0 0 0 1 3 5 3 1 0 0 4 15 20 11 10 24 43 59 68 65 51 36 30 30 29 26 20 12 5 1 0 0 0 0 0 0 0 0 0 0
0 0 0 0 0 0 0 1 1 0 0 1 1 3 5 3 1 0 3 13 29 29 16 14 27 42 53 61 59 47 31 21 16 13 10 6 2 0 0 0 0 0 0 0 0 0 0 0 0
0 0 0 0 0 0 1 2 2 1 1 2 3 3 4 2 1 2 8 25 40 35 19 17 27 37 47 55 55 48 36 23 14 8 4 2 0 0 0 0 0 0 0 0 0 0 0 0 0
0 0 0 0 0 0 1 2 3 3 3 4 4 4 4 2 1 3 10 24 36 32 19 19 27 34 42 50 52 48 40 28 18 11 6 3 1 1 0 0 0 0 0 0 0 0 0 0 0
0 0 0 0 0 0 1 3 6 7 7 5 5 5 5 3 1 2 5 11 21 24 19 20 27 32 37 43 45 43 37 29 21 13 8 5 3 2 1 0 0 0 0 1 1 0 0 0 0
0 0 0 0 0 0 1 4 6 7 6 5 4 4 5 4 2 1 1 3 9 14 15 16 21 25 28 32 34 32 29 24 18 12 9 7 4 3 1 0 0 0 0 1 1 1 1 0 0
0 0 0 0 0 0 2 3 3 4 5 5 4 4 7 9 7 4 3 2 3 5 7 9 12 15 17 19 20 22 20 17 14 11 9 6 4 2 1 1 0 0 0 1 1 1 1 1 0
0 0 0 0 0 0 1 2 2 5 8 11 14 18 22 24 18 11 6 2 1 1 2 3 6 7 9 10 12 14 15 14 13 10 8 5 2 1 0 0 0 0 0 0 0 1 1 1 1
0 0 0 0 0 0 0 2 4 9 16 23 32 40 46 41 30 20 11 5 2 2 2 1 2 3 4 5 7 9 10 11 10 9 8 6 3 2 1 1 0 0 0 0 1 1 1 2 2
0 0 0 0 0 0 1 6 13 19 25 34 42 51 53 48 39 30 20 12 9 9 7 4 3 2 2 2 3 4 5 6 6 7 10 10 7 5 4 2 1 0 0 0 1 2 3 4 5
0 0 1 2 3 6 11 21 32 36 36 41 48 52 51 49 46 40 32 25 21 21 16 10 6 4 3 2 2 2 3 4 4 6 10 11 9 6 4 3 2 1 0 0 1 2 3 4 5
0 1 2 4 8 16 28 42 47 44 42 47 55 56 54 51 48 45 41 35 32 29 20 12 7 5 4 3 3 3 3 4 4 5 8 9 6 3 2 2 2 2 1 1 1 1 2 3 4
1 1 3 5 8 17 36 49 47 39 39 48 53 53 50 46 42 39 37 35 32 25 15 8 5 3 3 3 3 4 4 3 3 4 6 5 3 2 1 2 2 2 2 1 1 0 0 1 1
0 1 1 2 3 9 23 36 34 30 35 44 45 43 39 34 29 24 21 23 20 12 6 4 3 2 2 3 3 3 3 2 3 3 3 3 2 1 2 3 2 1 1 1 0 0 0 0 0
0 0 0 0 0 2 8 17 20 23 30 36 36 34 31 25 18 11 9 9 7 3 2 2 2 1 2 3 3 2 1 2 2 2 2 2 1 1 2 3 2 0 0 0 0 0 0 0 0
0 0 0 0 0 1 3 8 13 17 20 22 22 23 22 17 11 6 4 3 1 1 1 2 1 1 1 1 1 1 0 1 1 1 1 1 0 0 1 1 1 0 0 0 0 0 0 0 0
0 0 0 0 1 2 4 8 11 11 11 11 10 9 10 9 7 4 2 1 0 0 1 1 0 0 0 0 0 0 0 0 0 0 0 0 0 0 0 0 0 0 0 0 0 0 0 0 0
0 0 0 0 1 2 4 8 10 9 6 5 4 2 2 3 2 1 0 0 0 0 0 0 0 0 0 0 0 0 0 0 0 0 0 0 0 0 0 0 0 0 0 0 0 0 0 0 0
0 0 0 0 0 1 3 5 7 6 4 2 1 1 0 0 0 0 0 0 0 0 0 0 0 0 0 0 0 0 0 0 0 0 0 0 0 0 0 0 0 0 0 0 0 0 0 0 0
0 0 0 0 0 1 1 1 2 2 1 1 1 1 0 0 0 0 0 0 0 0 0 0 0 0 0 0 0 0 0 0 0 0 0 0 0 0 0 0 0 0 0 0 0 0 0 0 0
0 0 0 0 0 0 0 0 0 0 0 0 1 1 0 0 0 0 0 0 0 0 0 0 0 0 0 0 0 0 0 0 0 0 0 0 0 0 0 0 0 0 0 0 0 0 0 0 0
0 0 0 0 0 0 0 0 0 0 0 0 0 0 0 0 0 0 0 0 0 0 0 0 0 0 0 0 0 0 0 0 0 0 0 0 0 0 0 0 0 0 0 0 0 0 0 0 0
0 0 0 0 0 0 0 0 0 0 0 0 0 0 0 0 0 0 0 0 0 0 0 0 0 0 0 0 0 0 0 0 0 0 0 0 0 0 0 0 0 0 0 0 0 0 0 0 0
0 0 0 0 0 0 0 0 0 0 0 0 0 0 0 0 0 0 0 0 0 0 0 0 0 0 0 0 0 0 0 0 0 0 0 0 0 0 0 0 0 0 0 0 0 0 0 0 0
0 0 0 0 0 0 0 0 0 0 0 0 0 0 0 0 0 0 0 0 0 0 0 0 0 0 0 0 0 0 0 0 0 0 0 0 0 0 0 0 0 0 0 0 0 0 0 0 0
0 0 0 0 0 0 0 0 0 0 0 0 0 0 0 0 0 0 0 0 0 0 0 0 0 0 0 0 0 0 0 0 0 0 0 0 0 0 0 0 0 0 0 0 0 0 0 0 0
0 0 0 0 0 0 0 0 0 0 0 0 0 0 0 0 0 0 0 0 0 0 0 0 0 0 0 0 0 0 0 0 0 0 0 0 0 0 0 0 0 0 0 0 0 0 0 0 0
0 0 0 0 0 0 0 0 0 0 0 0 0 0 0 0 0 0 0 0 0 0 0 0 0 0 0 0 0 0 0 0 0 0 0 0 0 0 0 0 0 0 0 0 0 0 0 0 0
0 0 0 0 0 0 0 0 0 0 0 0 0 0 0 0 0 0 0 0 0 0 0 0 0 0 0 0 0 0 0 0 0 0 0 0 0 0 0 0 0 0 0 0 0 0 0 0 0